KLM94K LHBP-EHAM

Flight info

Callsign KLM94K
Flight time N/A
Altitude 36000
Route GILEP DCT ZOLKU DCT BEGLA DCT DITIS DCT VARIK DCT KATCE DCT NORKU
Aircraft B738/M-SDE2E3FGHIRWXY/LB1

Departure

Time 2026-05-08 06:45
Airport Budapest Liszt Ferenc International Airport (LHBP)

Arrival

Time N/A
Airport Amsterdam Airport Schiphol (EHAM)
Time Latitude Longitude Altitude Speed Heading
2026-05-08 06:29 47.43296 19.25701 480 ft 0 kts 39°
2026-05-08 06:39 47.43286 19.25689 472 ft 3 kts 39°
2026-05-08 06:39 47.43270 19.25669 474 ft 3 kts 37°
2026-05-08 06:39 47.43253 19.25652 481 ft 4 kts 27°
2026-05-08 06:39 47.43234 19.25641 478 ft 3 kts
2026-05-08 06:40 47.43216 19.25642 481 ft 4 kts 328°
2026-05-08 06:40 47.43209 19.25649 476 ft 0 kts 311°
2026-05-08 06:42 47.43221 19.25630 475 ft 5 kts 311°
2026-05-08 06:42 47.43256 19.25574 482 ft 10 kts 315°
2026-05-08 06:42 47.43307 19.25490 482 ft 11 kts 311°
2026-05-08 06:42 47.43333 19.25390 484 ft 12 kts 250°
2026-05-08 06:43 47.43270 19.25288 482 ft 16 kts 222°
2026-05-08 06:43 47.43180 19.25166 483 ft 17 kts 222°
2026-05-08 06:43 47.43096 19.25053 490 ft 16 kts 222°
2026-05-08 06:43 47.43074 19.24978 489 ft 7 kts 302°
2026-05-08 06:44 47.43089 19.24951 493 ft 0 kts 315°
2026-05-08 06:44 47.43115 19.24911 488 ft 17 kts 312°
2026-05-08 06:44 47.43307 19.24600 483 ft 70 kts 312°
2026-05-08 06:44 47.43768 19.23858 490 ft 124 kts 312°
2026-05-08 06:45 47.44455 19.22756 597 ft 159 kts 313°
2026-05-08 06:45 47.45244 19.21490 901 ft 180 kts 312°
2026-05-08 06:45 47.46112 19.20048 1473 ft 184 kts 312°
2026-05-08 06:45 47.46995 19.18618 2059 ft 197 kts 313°
2026-05-08 06:46 47.47962 19.17063 2612 ft 213 kts 312°
2026-05-08 06:46 47.48983 19.15341 3273 ft 232 kts 305°
2026-05-08 06:46 47.49682 19.13113 4023 ft 248 kts 283°
2026-05-08 06:46 47.49716 19.10512 4832 ft 260 kts 258°
2026-05-08 06:47 47.48981 19.08052 5772 ft 267 kts 233°
2026-05-08 06:47 47.47595 19.06270 6709 ft 273 kts 208°
2026-05-08 06:47 47.45811 19.05259 7630 ft 278 kts 199°
2026-05-08 06:47 47.43949 19.04398 8542 ft 282 kts 197°
2026-05-08 06:48 47.42052 19.03559 9442 ft 287 kts 198°
2026-05-08 06:48 47.40131 19.02681 10299 ft 293 kts 199°
2026-05-08 06:48 47.38140 19.01682 10802 ft 311 kts 199°
2026-05-08 06:48 47.36071 19.00503 11272 ft 327 kts 207°
2026-05-08 06:49 47.33964 18.99017 11758 ft 343 kts 207°
2026-05-08 06:49 47.32065 18.96892 12510 ft 346 kts 231°
2026-05-08 06:49 47.30984 18.93741 13345 ft 349 kts 257°
2026-05-08 06:49 47.30967 18.90160 14160 ft 355 kts 282°
2026-05-08 06:50 47.31813 18.86714 14925 ft 362 kts 295°
2026-05-08 06:50 47.33091 18.83485 15688 ft 367 kts 301°
2026-05-08 06:50 47.34465 18.80291 16430 ft 371 kts 299°
2026-05-08 06:50 47.35732 18.76958 17172 ft 374 kts 295°
2026-05-08 06:51 47.36869 18.73483 17881 ft 378 kts 293°
2026-05-08 06:51 47.37966 18.69938 18573 ft 382 kts 293°
2026-05-08 06:51 47.39104 18.66374 19258 ft 385 kts 294°
2026-05-08 06:51 47.40303 18.62808 19908 ft 390 kts 295°
2026-05-08 06:52 47.41492 18.59197 20532 ft 392 kts 290°
2026-05-08 06:52 47.42359 18.55371 21139 ft 395 kts 286°
2026-05-08 06:52 47.43170 18.51475 21739 ft 398 kts 285°
2026-05-08 06:52 47.43962 18.47535 22319 ft 402 kts 285°
2026-05-08 06:53 47.44754 18.43562 22873 ft 405 kts 285°
2026-05-08 06:53 47.45552 18.39605 23406 ft 408 kts 285°
2026-05-08 06:53 47.46374 18.35570 23928 ft 411 kts 285°
2026-05-08 06:53 47.47203 18.31504 24432 ft 414 kts 285°
2026-05-08 06:54 47.48033 18.27411 24903 ft 417 kts 285°
2026-05-08 06:54 47.48840 18.23280 25360 ft 420 kts 283°
2026-05-08 06:54 47.49552 18.19078 25800 ft 422 kts 282°
2026-05-08 06:54 47.50200 18.14836 26224 ft 425 kts 281°
2026-05-08 06:55 47.50853 18.10559 26639 ft 427 kts 281°
2026-05-08 06:55 47.51545 18.06275 27028 ft 430 kts 282°
2026-05-08 06:55 47.52268 18.01972 27407 ft 432 kts 282°
2026-05-08 06:55 47.52997 17.97650 27767 ft 434 kts 282°
2026-05-08 06:56 47.53715 17.93294 28123 ft 436 kts 282°
2026-05-08 06:56 47.54418 17.88926 28460 ft 438 kts 282°
2026-05-08 06:56 47.55124 17.84527 28777 ft 440 kts 282°
2026-05-08 06:56 47.56108 17.80226 29093 ft 444 kts 292°
2026-05-08 06:57 47.57575 17.76174 29393 ft 448 kts 298°
2026-05-08 06:57 47.59150 17.72179 29679 ft 450 kts 298°
2026-05-08 06:57 47.60749 17.68186 29951 ft 452 kts 298°
2026-05-08 06:57 47.62357 17.64184 30387 ft 450 kts 298°
2026-05-08 06:58 47.63947 17.60199 30816 ft 448 kts 298°
2026-05-08 06:58 47.65518 17.56227 31213 ft 447 kts 298°
2026-05-08 06:58 47.67082 17.52252 31595 ft 446 kts 298°
2026-05-08 06:58 47.68644 17.48284 31969 ft 445 kts 298°
2026-05-08 06:59 47.70206 17.44325 32335 ft 444 kts 298°
2026-05-08 06:59 47.71763 17.40380 32694 ft 443 kts 298°
2026-05-08 06:59 47.73318 17.36431 33041 ft 442 kts 298°
2026-05-08 06:59 47.74864 17.32493 33386 ft 441 kts 297°
2026-05-08 07:00 47.76405 17.28555 33725 ft 440 kts 297°
2026-05-08 07:00 47.77942 17.24626 34063 ft 439 kts 297°
2026-05-08 07:00 47.79475 17.20705 34389 ft 438 kts 297°
2026-05-08 07:00 47.81005 17.16782 34691 ft 438 kts 297°
2026-05-08 07:01 47.82518 17.12918 34976 ft 438 kts 299°
2026-05-08 07:01 47.84317 17.09242 35289 ft 440 kts 306°
2026-05-08 07:01 47.86250 17.05707 35532 ft 440 kts 307°
2026-05-08 07:01 47.88195 17.02183 35809 ft 440 kts 307°
2026-05-08 07:02 47.90146 16.98667 36069 ft 441 kts 307°
2026-05-08 07:02 47.92108 16.95123 36088 ft 445 kts 307°
2026-05-08 07:02 47.96042 16.87971 36103 ft 445 kts 307°
2026-05-08 07:03 47.99942 16.80855 36099 ft 441 kts 307°
2026-05-08 07:03 48.03819 16.73773 36110 ft 440 kts 307°
2026-05-08 07:04 48.07703 16.66657 36117 ft 442 kts 307°
2026-05-08 07:04 48.11586 16.59522 36120 ft 442 kts 307°
2026-05-08 07:05 48.15467 16.52374 36118 ft 442 kts 307°
2026-05-08 07:05 48.19340 16.45220 36116 ft 442 kts 307°
2026-05-08 07:06 48.23208 16.38058 36113 ft 442 kts 307°
2026-05-08 07:06 48.27065 16.30894 36114 ft 441 kts 307°
2026-05-08 07:07 48.30919 16.23720 36113 ft 441 kts 307°
2026-05-08 07:07 48.34770 16.16533 36122 ft 442 kts 307°
2026-05-08 07:08 48.38621 16.09323 36112 ft 443 kts 307°
2026-05-08 07:08 48.42491 16.02060 36120 ft 447 kts 307°
2026-05-08 07:09 48.46392 15.94718 36120 ft 451 kts 307°
2026-05-08 07:09 48.50326 15.87295 36115 ft 454 kts 307°
2026-05-08 07:10 48.54267 15.79841 36108 ft 454 kts 307°
2026-05-08 07:10 48.58186 15.72405 36117 ft 452 kts 307°
2026-05-08 07:11 48.62098 15.64959 36122 ft 453 kts 307°
2026-05-08 07:11 48.65984 15.57545 36115 ft 453 kts 307°
2026-05-08 07:12 48.69889 15.50072 36118 ft 452 kts 307°
2026-05-08 07:12 48.73156 15.43806 36117 ft 452 kts 307°
2026-05-08 07:13 48.77685 15.35091 36117 ft 453 kts 306°
2026-05-08 07:13 48.80950 15.28796 36124 ft 453 kts 306°
2026-05-08 07:14 48.84816 15.21319 36116 ft 453 kts 306°
2026-05-08 07:14 48.88724 15.13734 36128 ft 453 kts 306°
2026-05-08 07:15 48.92623 15.06273 36130 ft 454 kts 308°
2026-05-08 07:15 48.96640 14.98877 36131 ft 453 kts 308°
2026-05-08 07:16 49.00614 14.91421 36129 ft 453 kts 307°
2026-05-08 07:16 49.04572 14.83928 36128 ft 454 kts 307°
2026-05-08 07:17 49.08541 14.76456 36122 ft 453 kts 307°
2026-05-08 07:17 49.12499 14.68969 36120 ft 453 kts 307°
2026-05-08 07:18 49.16448 14.61460 36125 ft 453 kts 307°
2026-05-08 07:18 49.20398 14.53944 36127 ft 453 kts 307°
2026-05-08 07:19 49.24349 14.46403 36132 ft 454 kts 307°
2026-05-08 07:19 49.28289 14.38857 36138 ft 454 kts 307°
2026-05-08 07:20 49.32229 14.31293 36133 ft 454 kts 307°
2026-05-08 07:20 49.36166 14.23713 36131 ft 454 kts 307°
2026-05-08 07:21 49.40099 14.16118 36134 ft 454 kts 307°
2026-05-08 07:21 49.44024 14.08516 36145 ft 455 kts 307°
2026-05-08 07:22 49.47948 14.00891 36145 ft 455 kts 307°
2026-05-08 07:22 49.51846 13.93302 36146 ft 454 kts 307°
2026-05-08 07:23 49.55757 13.85665 36144 ft 454 kts 307°
2026-05-08 07:23 49.59664 13.78007 36143 ft 454 kts 307°
2026-05-08 07:24 49.63568 13.70338 36146 ft 454 kts 307°
2026-05-08 07:24 49.67467 13.62657 36149 ft 454 kts 307°
2026-05-08 07:25 49.71358 13.54968 36144 ft 454 kts 307°
2026-05-08 07:26 49.77182 13.43415 36146 ft 454 kts 307°
2026-05-08 07:26 49.81061 13.35694 36146 ft 454 kts 307°
2026-05-08 07:27 49.84929 13.27973 36145 ft 454 kts 307°
2026-05-08 07:27 49.88786 13.20250 36146 ft 453 kts 307°
2026-05-08 07:28 49.92641 13.12506 36146 ft 453 kts 306°
2026-05-08 07:28 49.96482 13.04770 36148 ft 452 kts 306°
2026-05-08 07:29 50.00317 12.97024 36144 ft 452 kts 306°
2026-05-08 07:29 50.04153 12.89252 36145 ft 454 kts 306°
2026-05-08 07:30 50.08000 12.81436 36149 ft 455 kts 306°
2026-05-08 07:30 50.11836 12.73618 36143 ft 454 kts 306°
2026-05-08 07:31 50.15663 12.65796 36146 ft 454 kts 306°
2026-05-08 07:31 50.19484 12.57963 36144 ft 453 kts 306°
2026-05-08 07:32 50.23295 12.50125 36147 ft 452 kts 306°
2026-05-08 07:32 50.27098 12.42275 36148 ft 453 kts 306°
2026-05-08 07:33 50.30905 12.34424 36146 ft 452 kts 306°
2026-05-08 07:33 50.34721 12.26676 36153 ft 452 kts 307°
2026-05-08 07:34 50.38557 12.18840 36156 ft 453 kts 306°
2026-05-08 07:34 50.42371 12.10988 36151 ft 453 kts 306°
2026-05-08 07:35 50.46188 12.03133 36144 ft 452 kts 306°
2026-05-08 07:35 50.49998 11.95268 36147 ft 453 kts 306°
2026-05-08 07:36 50.53800 11.87385 36148 ft 453 kts 306°
2026-05-08 07:36 50.57599 11.79494 36149 ft 452 kts 306°
2026-05-08 07:37 50.61389 11.71593 36152 ft 452 kts 306°
2026-05-08 07:37 50.65180 11.63668 36154 ft 454 kts 306°
2026-05-08 07:38 50.68968 11.55726 36158 ft 453 kts 306°
2026-05-08 07:38 50.72746 11.47779 36163 ft 453 kts 306°
2026-05-08 07:39 50.76528 11.39804 36164 ft 453 kts 306°
2026-05-08 07:39 50.80300 11.31819 36164 ft 453 kts 306°
2026-05-08 07:40 50.84072 11.23812 36170 ft 453 kts 306°
2026-05-08 07:40 50.87830 11.15811 36170 ft 453 kts 306°
2026-05-08 07:41 50.91588 11.07785 36170 ft 454 kts 306°
2026-05-08 07:41 50.95340 10.99746 36172 ft 453 kts 306°
2026-05-08 07:42 50.99084 10.91700 36172 ft 453 kts 306°
2026-05-08 07:42 51.02802 10.83686 36170 ft 453 kts 306°
2026-05-08 07:43 51.06541 10.75601 36172 ft 454 kts 305°
2026-05-08 07:43 51.10273 10.67508 36171 ft 453 kts 305°
2026-05-08 07:44 51.13999 10.59399 36169 ft 453 kts 305°
2026-05-08 07:44 51.17716 10.51286 36173 ft 453 kts 305°
2026-05-08 07:45 51.21430 10.43153 36171 ft 453 kts 305°
2026-05-08 07:45 51.25074 10.34940 36162 ft 453 kts 299°
2026-05-08 07:46 51.27924 10.25965 36171 ft 454 kts 295°
2026-05-08 07:46 51.30671 10.16900 36174 ft 453 kts 295°
2026-05-08 07:47 51.33418 10.07828 36174 ft 452 kts 295°
2026-05-08 07:47 51.36167 9.98769 36173 ft 453 kts 295°
2026-05-08 07:48 51.38906 9.89676 36174 ft 453 kts 295°
2026-05-08 07:48 51.41617 9.80638 36175 ft 453 kts 295°
2026-05-08 07:49 51.44342 9.71534 36174 ft 453 kts 295°
2026-05-08 07:49 51.47057 9.62424 36175 ft 453 kts 295°
2026-05-08 07:50 51.49767 9.53293 36174 ft 453 kts 295°
2026-05-08 07:50 51.52467 9.44160 36175 ft 453 kts 295°
2026-05-08 07:51 51.55164 9.35011 36173 ft 453 kts 295°
2026-05-08 07:51 51.57849 9.25859 36172 ft 452 kts 294°
2026-05-08 07:52 51.60528 9.16694 36171 ft 453 kts 294°
2026-05-08 07:52 51.63198 9.07527 36170 ft 452 kts 294°
2026-05-08 07:53 51.65862 8.98346 36171 ft 453 kts 294°
2026-05-08 07:53 51.68518 8.89154 36170 ft 453 kts 294°
2026-05-08 07:54 51.71169 8.79945 36174 ft 453 kts 294°
2026-05-08 07:54 51.73810 8.70732 36171 ft 453 kts 294°
2026-05-08 07:55 51.76447 8.61502 36171 ft 453 kts 294°
2026-05-08 07:55 51.79075 8.52265 36171 ft 453 kts 294°
2026-05-08 07:56 51.81700 8.43007 36171 ft 453 kts 294°
2026-05-08 07:56 51.84324 8.33708 35868 ft 455 kts 294°
2026-05-08 07:56 51.85611 8.29137 35619 ft 448 kts 294°
2026-05-08 07:57 51.86891 8.24580 35372 ft 444 kts 294°
2026-05-08 07:57 51.88168 8.20023 35120 ft 445 kts 294°
2026-05-08 07:57 51.89442 8.15467 34874 ft 445 kts 293°
2026-05-08 07:57 51.90715 8.10913 34623 ft 441 kts 293°
2026-05-08 07:58 51.91971 8.06411 34366 ft 435 kts 293°
2026-05-08 07:58 51.92792 8.03464 34192 ft 434 kts 293°
2026-05-08 07:58 51.94041 7.98964 33514 ft 439 kts 293°
2026-05-08 07:58 51.95288 7.94462 33028 ft 436 kts 293°
2026-05-08 07:59 51.96528 7.89980 32492 ft 435 kts 293°
2026-05-08 07:59 51.97767 7.85496 31946 ft 434 kts 293°
2026-05-08 07:59 51.98999 7.81030 31396 ft 433 kts 293°
2026-05-08 07:59 52.00227 7.76569 30846 ft 432 kts 293°
2026-05-08 08:00 52.01449 7.72120 30290 ft 431 kts 293°
2026-05-08 08:00 52.02668 7.67670 29727 ft 430 kts 293°
2026-05-08 08:00 52.03883 7.63230 29163 ft 429 kts 293°
2026-05-08 08:00 52.05091 7.58807 28597 ft 428 kts 293°
2026-05-08 08:01 52.06296 7.54386 28026 ft 427 kts 293°
2026-05-08 08:01 52.07491 7.49995 27436 ft 421 kts 293°
2026-05-08 08:01 52.08662 7.45683 26881 ft 413 kts 293°
2026-05-08 08:01 52.09810 7.41448 26305 ft 405 kts 293°
2026-05-08 08:02 52.10933 7.37294 25750 ft 399 kts 293°
2026-05-08 08:02 52.12040 7.33194 25195 ft 393 kts 293°
2026-05-08 08:02 52.13129 7.29156 24636 ft 387 kts 293°
2026-05-08 08:02 52.14200 7.25175 24100 ft 381 kts 293°
2026-05-08 08:03 52.15256 7.21241 23547 ft 377 kts 293°
2026-05-08 08:03 52.16289 7.17387 23005 ft 374 kts 292°
2026-05-08 08:03 52.17327 7.13513 22454 ft 371 kts 292°
2026-05-08 08:03 52.18353 7.09674 21913 ft 368 kts 292°
2026-05-08 08:04 52.19370 7.05857 21362 ft 366 kts 292°
2026-05-08 08:04 52.20379 7.02065 20805 ft 363 kts 292°
2026-05-08 08:04 52.21377 6.98310 20257 ft 359 kts 292°
2026-05-08 08:04 52.22306 6.94571 19835 ft 352 kts 290°
2026-05-08 08:05 52.23117 6.90815 19488 ft 351 kts 288°
2026-05-08 08:05 52.23880 6.87031 19124 ft 351 kts 287°
2026-05-08 08:05 52.24655 6.83254 18758 ft 350 kts 288°
2026-05-08 08:05 52.25457 6.79513 18385 ft 348 kts 289°
2026-05-08 08:06 52.26268 6.75821 18011 ft 345 kts 289°
2026-05-08 08:06 52.27072 6.72147 17655 ft 342 kts 289°
2026-05-08 08:06 52.27860 6.68489 17305 ft 340 kts 288°
2026-05-08 08:06 52.28636 6.64846 16941 ft 339 kts 288°
2026-05-08 08:07 52.29408 6.61220 16578 ft 337 kts 288°
2026-05-08 08:07 52.30178 6.57603 16227 ft 336 kts 288°
2026-05-08 08:07 52.30944 6.54008 15878 ft 335 kts 289°
2026-05-08 08:07 52.31708 6.50423 15526 ft 333 kts 288°
2026-05-08 08:08 52.32466 6.46854 15174 ft 331 kts 288°
2026-05-08 08:08 52.33221 6.43297 14826 ft 330 kts 288°
2026-05-08 08:08 52.33968 6.39766 14478 ft 328 kts 288°
2026-05-08 08:08 52.34711 6.36243 14141 ft 327 kts 288°
2026-05-08 08:09 52.35451 6.32730 13787 ft 326 kts 288°
2026-05-08 08:09 52.36187 6.29233 13445 ft 324 kts 288°
2026-05-08 08:09 52.36918 6.25754 13116 ft 323 kts 288°
2026-05-08 08:09 52.37645 6.22288 12768 ft 321 kts 288°
2026-05-08 08:10 52.38370 6.18830 12442 ft 320 kts 288°
2026-05-08 08:10 52.39090 6.15384 12103 ft 318 kts 288°
2026-05-08 08:10 52.39803 6.11962 11774 ft 317 kts 288°
2026-05-08 08:10 52.40515 6.08548 11439 ft 316 kts 288°
2026-05-08 08:11 52.41223 6.05143 11109 ft 315 kts 288°
2026-05-08 08:11 52.41925 6.01761 10776 ft 314 kts 288°
2026-05-08 08:11 52.42625 5.98380 10466 ft 311 kts 288°
2026-05-08 08:11 52.43297 5.95132 10357 ft 298 kts 288°
2026-05-08 08:12 52.43948 5.91982 10232 ft 286 kts 288°
2026-05-08 08:12 52.44575 5.88940 10105 ft 280 kts 288°
2026-05-08 08:12 52.45200 5.85908 9811 ft 280 kts 288°
2026-05-08 08:12 52.45817 5.82904 9534 ft 276 kts 288°
2026-05-08 08:13 52.46425 5.79942 9250 ft 273 kts 288°
2026-05-08 08:13 52.47037 5.76957 8982 ft 272 kts 288°
2026-05-08 08:13 52.47629 5.74068 8717 ft 270 kts 288°
2026-05-08 08:13 52.48224 5.71150 8449 ft 269 kts 288°
2026-05-08 08:14 52.48824 5.68204 8180 ft 268 kts 288°
2026-05-08 08:14 52.49412 5.65312 7921 ft 267 kts 288°
2026-05-08 08:14 52.49992 5.62468 7655 ft 265 kts 288°
2026-05-08 08:14 52.50539 5.59585 7383 ft 264 kts 281°
2026-05-08 08:15 52.50585 5.56555 7123 ft 263 kts 259°
2026-05-08 08:15 52.49970 5.53773 6999 ft 259 kts 240°
2026-05-08 08:15 52.49074 5.51250 6887 ft 260 kts 239°
2026-05-08 08:15 52.48133 5.48711 6761 ft 261 kts 238°
2026-05-08 08:16 52.47181 5.46166 6630 ft 262 kts 238°
2026-05-08 08:16 52.46232 5.43614 6494 ft 262 kts 238°
2026-05-08 08:16 52.45289 5.41059 6366 ft 261 kts 238°
2026-05-08 08:16 52.44351 5.38511 6236 ft 260 kts 238°